Content
SEND FEEDBACK

Daily
Averages
Monthly
Summary
United States of America

FOSTORIA, IOWA


Home > North America > United States > Iowa
Elevation: 404 meters     Latitude: 43 10N     Longitude: 095 09W

WEATHER
 
SELECT A DAY
Number of Records: 191,072;   Date Range: 7/9/96 - 8/28/14
 
SHARE

PRINT THIS DATA

[ ← Previous Day ]
WEATHER ALMANAC - 31 JANUARY, 2013
[ Next Day → ]
[ °F ]   °C
Weather ElementAverageHighLow
Temperature-17.8 °C-15 °C (2:53 pm)-21.7 °C (11:53 pm)
Dewpoint-23.1 °C-19.4 °C (12:53 am)-26.1 °C (10:53 pm)
Humidity64.9 %76 % (12:53 am)55 % (12:53 pm)
Barometer1021.3 hPa1030.5 hPa (9:53 pm)1013.5 hPa (12:53 am)
Wind Speed32.5 km/h46.3 km/h (11:04 am)
Wind Gust59.2 km/h (11:53 am)
Weather ElementAverage
Visibility15.4 km
Wind DirectionWNW (306.8 °)

Weather ElementTotal
Precipitation---
Heating Degree Days36.7 (Base 18.3)
Averaged from 28 records on 31 January, 2013
WEATHER CONDITIONS BREAKOUT
WIND DIRECTION BREAKOUT
WEATHER BY HOUR - 31 JANUARY, 2013
[ °F ]   °C
Local TimeTemperatureDewpointHumidityBarometerVisibilityWind DirectionWind SpeedGust SpeedPrecipitationEventsConditions
12:53 AM-16.1 °C-19.4 °C76 %1013.5 hPa16.1 kmWNW (300°)27.8 km/hClear
1:53 AM-16.7 °C-20.6 °C72 %1013.9 hPa16.1 kmWNW (300°)29.6 km/hClear
2:53 AM-17.2 °C-21.7 °C69 %1014.6 hPa16.1 kmWNW (300°)29.6 km/h42.6 km/hClear
3:53 AM-17.8 °C-22.2 °C69 %1015.2 hPa16.1 kmWNW (300°)27.8 km/h40.7 km/hClear
5:08 AM-19 °C-23 °C71 %1013.5 hPa16.1 kmWNW (300°)29.6 km/h40.7 km/hMostly Cloudy
5:15 AM-18 °C-23 °C66 %1013.5 hPa16.1 kmWNW (300°)29.6 km/hMostly Cloudy
5:23 AM-19 °C-23 °C71 %1013.5 hPa16.1 kmWNW (300°)33.3 km/h42.6 km/hMostly Cloudy
5:53 AM-18.3 °C-22.2 °C72 %1016.6 hPa16.1 kmWNW (300°)27.8 km/h40.7 km/hOvercast
6:53 AM-18.3 °C-22.8 °C69 %1017.9 hPa16.1 kmNW (320°)31.5 km/h48.1 km/hOvercast
7:53 AM-18.9 °C-22.8 °C72 %1019.6 hPa16.1 kmNW (310°)33.3 km/h46.3 km/hOvercast
8:29 AM-18 °C-23 °C66 %1016.6 hPa6.4 kmNW (310°)35.2 km/h48.1 km/h0 mmSnowLight Snow
8:51 AM-18 °C-23 °C66 %1017.3 hPa11.3 kmNW (310°)29.6 km/h46.3 km/h0 mmOvercast
8:53 AM-18.3 °C-22.8 °C69 %1020.7 hPa11.3 kmNW (310°)29.6 km/h46.3 km/h0 mmOvercast
9:53 AM-17.8 °C-23.3 °C63 %1021.7 hPa16.1 kmNW (310°)35.2 km/h53.8 km/h0 mmScattered Clouds
10:53 AM-17.2 °C-23.3 °C60 %1022.7 hPa16.1 kmNW (310°)40.7 km/h55.5 km/hScattered Clouds
11:04 AM-17 °C-23 °C61 %1019.6 hPa16.1 kmNW (310°)46.3 km/h57.5 km/hMostly Cloudy
11:53 AM-16.7 °C-23.3 °C58 %1023.4 hPa16.1 kmWNW (300°)38.9 km/h59.2 km/hMostly Cloudy
12:53 PM-16.1 °C-23.3 °C55 %1024.4 hPa16.1 kmNW (310°)42.6 km/h55.5 km/hOvercast
1:53 PM-16.1 °C-22.8 °C57 %1025.1 hPa16.1 kmNW (310°)38.9 km/h51.8 km/hMostly Cloudy
2:53 PM-15 °C-22.2 °C55 %1025.4 hPa16.1 kmNW (320°)37 km/h55.5 km/hMostly Cloudy
3:53 PM-16.1 °C-22.8 °C57 %1026.8 hPa16.1 kmNW (310°)42.6 km/h55.5 km/hMostly Cloudy
4:22 PM-16 °C-23 °C56 %1023 hPa16.1 kmNW (310°)31.5 km/h51.8 km/hScattered Clouds
4:53 PM-16.7 °C-23.3 °C58 %1027.1 hPa16.1 kmNW (310°)33.3 km/h50.1 km/hClear
5:53 PM-18.3 °C-23.9 °C62 %1027.8 hPa16.1 kmNW (310°)29.6 km/h46.3 km/hClear
6:53 PM-18.9 °C-23.9 °C66 %1028.8 hPa16.1 kmNW (310°)27.8 km/h42.6 km/hClear
9:53 PM-21.1 °C-25.6 °C68 %1030.5 hPa16.1 kmWNW (300°)24.1 km/h35.2 km/hClear
10:53 PM-21.1 °C-26.1 °C65 %1030.5 hPa16.1 kmNW (310°)27.8 km/hClear
11:53 PM-21.7 °C-26.1 °C68 %1030.5 hPa16.1 kmWNW (300°)18.5 km/hClear
Hourly data recorded from KSPW, located 0 kilometers away from Fostoria, Iowa







STORIES FROM OUR PARTNERS